VK1ET-13 Weather Reports


time (UTC)temp
C
wind
direction
speed
KPH
gust
KPH
rain 1hr
cm
rain 24hr
cm
rain mn
cm
humidity
%
barometer
mb
20260502130528 18 47 1.6 4.8 0.00 0.00 0.00 78 1022.1
20260502123535 18 194 1.6 3.2 0.00 0.00 0.00 75 1022.4
20260502122521 18 43 3.2 8.0 0.00 0.00 0.00 75 1022.3
20260502121537 18 25 1.6 4.8 0.00 0.00 0.00 75 1022.5
20260502120519 18 247 0.0 3.2 0.00 0.00 0.00 75 1022.4
20260502115529 18 184 0.0 3.2 0.00 0.00 0.00 74 1022.4
20260502114517 18 53 0.0 3.2 0.00 0.00 0.00 75 1022.4
20260502113526 18 235 1.6 4.8 0.00 0.00 0.00 74 1022.4
20260502112534 19 163 1.6 3.2 0.00 0.00 0.00 73 1022.4
20260502111524 19 46 1.6 6.4 0.00 0.00 0.00 73 1022.4
20260502110531 19 54 3.2 9.7 0.00 0.00 0.00 73 1022.1
20260502105527 19 60 1.6 4.8 0.00 0.00 0.00 72 1022.1
20260502104531 19 12 1.6 4.8 0.00 0.00 0.00 71 1022.2
20260502103525 20 69 1.6 9.7 0.00 0.00 0.00 70 1022.1
20260502102527 20 59 1.6 3.2 0.00 0.00 0.00 69 1022.0
20260502100532 20 46 3.2 11.3 0.00 0.00 0.00 69 1021.9
20260502091527 20 29 6.4 17.7 0.00 0.00 0.00 67 1021.5
20260502090517 20 28 3.2 12.9 0.00 0.00 0.00 66 1021.5
20260502071535 21 245 0.0 3.2 0.00 0.00 0.00 68 1020.8
20260502070530 21 348 1.6 4.8 0.00 0.00 0.00 67 1020.7
20260502065532 21 75 1.6 3.2 0.00 0.00 0.00 67 1020.8
20260502064520 21 303 0.0 1.6 0.00 0.00 0.00 67 1020.7
20260502063529 21 105 1.6 3.2 0.00 0.00 0.00 66 1020.6
20260502062519 21 85 1.6 3.2 0.00 0.00 0.00 66 1020.7
20260502061528 21 198 0.0 3.2 0.00 0.00 0.00 65 1020.7
20260502060536 21 208 0.0 1.6 0.00 0.00 0.00 65 1020.8
20260502055524 21 144 1.6 4.8 0.00 0.00 0.00 64 1020.8
20260502054533 21 132 1.6 4.8 0.00 0.00 0.00 63 1020.8
20260502053521 21 85 1.6 4.8 0.00 0.00 0.00 63 1020.8
20260502052530 21 333 0.0 1.6 0.00 0.00 0.00 63 1020.9
20260502051519 21 199 1.6 3.2 0.00 0.00 0.00 63 1021.0
20260502050543 21 215 1.6 3.2 0.00 0.00 0.00 62 1021.1
20260502045518 21 121 1.6 3.2 0.00 0.00 0.00 63 1021.1
20260502044527 21 178 1.6 3.2 0.00 0.00 0.00 63 1021.2
20260502043537 21 215 3.2 6.4 0.00 0.00 0.00 63 1021.3
20260502042525 21 204 1.6 4.8 0.00 0.00 0.00 62 1021.5
20260502041534 21 195 3.2 8.0 0.00 0.00 0.00 64 1021.7
20260502040522 21 196 4.8 8.0 0.00 0.00 0.00 63 1021.7
20260502035531 21 252 3.2 6.4 0.00 0.00 0.00 63 1021.7
20260502034519 21 222 3.2 6.4 0.00 0.00 0.00 63 1021.8
20260502033529 20 230 4.8 8.0 0.00 0.00 0.00 65 1022.0
20260502032517 21 258 3.2 6.4 0.00 0.00 0.00 65 1022.4
20260502031528 21 215 4.8 6.4 0.00 0.00 0.00 65 1022.3
20260502030534 21 213 4.8 9.7 0.00 0.00 0.00 64 1022.5
20260502025529 21 296 3.2 8.0 0.00 0.00 0.00 63 1022.6
20260502024532 21 280 4.8 11.3 0.00 0.00 0.00 63 1022.8
20260502023520 21 306 4.8 9.7 0.00 0.00 0.00 63 1023.0
20260502022529 20 357 4.8 8.0 0.00 0.00 0.00 65 1023.3
20260502021525 19 247 3.2 6.4 0.00 0.00 0.00 67 1023.4
20260502020528 19 295 3.2 6.4 0.00 0.00 0.00 67 1023.7
20260502015535 18 315 3.2 9.7 0.00 0.00 0.00 68 1023.9
20260502014532 18 99 1.6 6.4 0.00 0.00 0.00 69 1024.1
20260502013535 18 187 3.2 8.0 0.00 0.00 0.00 70 1024.2
20260502012523 18 230 1.6 4.8 0.00 0.00 0.00 70 1024.5
20260502011532 17 161 3.2 8.0 0.00 0.00 0.00 71 1024.7
20260502010526 17 308 4.8 11.3 0.00 0.00 0.00 71 1024.9
20260502005527 17 209 3.2 8.0 0.00 0.00 0.00 73 1024.9
20260502004537 17 188 4.8 9.7 0.00 0.00 0.00 73 1024.9
20260502003526 17 194 3.2 8.0 0.00 0.00 0.00 76 1025.0
20260502002535 16 214 3.2 8.0 0.00 0.00 0.00 79 1025.1
20260502001524 16 200 3.2 8.0 0.00 0.00 0.00 81 1025.3
20260502000534 16 190 3.2 8.0 0.00 0.00 0.00 82 1025.3
20260501235521 15 157 4.8 6.4 0.00 0.00 0.00 85 1025.3
20260501234607 15 159 4.8 9.7 0.00 0.00 0.00 89 1025.3
20260501233519 14 185 4.8 9.7 0.00 0.00 0.00 91 1025.4
20260501232527 13 203 3.2 6.4 0.00 0.00 0.00 92 1025.6
20260501231537 13 196 3.2 4.8 0.00 0.00 0.00 93 1025.6
20260501230524 13 103 1.6 3.2 0.00 0.00 0.00 96 1025.6
20260501225533 12 113 1.6 4.8 0.00 0.00 0.00 97 1025.8
20260501224529 12 64 1.6 3.2 0.00 0.00 0.00 97 1025.6
20260501223532 11 55 0.0 3.2 0.00 0.00 0.00 97 1025.6
20260501222520 11 178 1.6 3.2 0.00 0.00 0.00 98 1025.5
20260501221530 11 146 0.0 3.2 0.00 0.00 0.00 97 1025.4
20260501220520 11 93 3.2 4.8 0.00 0.00 0.00 98 1025.5
20260501215528 11 353 1.6 4.8 0.00 0.00 0.00 98 1025.5
20260501214517 11 26 3.2 6.4 0.00 0.00 0.00 98 1025.5
20260501213527 11 87 0.0 3.2 0.00 0.00 0.00 98 1025.2
20260501212536 11 229 0.0 3.2 0.00 0.00 0.00 98 1025.1
20260501211523 11 342 3.2 4.8 0.00 0.00 0.00 97 1025.2
20260501210532 10 360 6.4 8.0 0.00 0.00 0.00 97 1025.2
20260501205520 10 1 3.2 6.4 0.00 0.00 0.00 97 1025.1
20260501204537 10 289 1.6 3.2 0.00 0.00 0.00 97 1025.0
20260501203518 10 356 0.0 3.2 0.00 0.00 0.00 97 1025.0
20260501202534 10 91 1.6 3.2 0.00 0.00 0.00 97 1024.9
20260501201536 10 122 3.2 4.8 0.00 0.00 0.00 97 1024.8
20260501200525 10 22 1.6 3.2 0.00 0.00 0.00 97 1024.8
20260501195534 10 237 0.0 3.2 0.00 0.00 0.00 97 1024.7
20260501194522 10 276 0.0 3.2 0.00 0.00 0.00 97 1024.6
20260501193539 11 347 0.0 3.2 0.00 0.00 0.00 97 1024.7
20260501192528 11 148 1.6 4.8 0.00 0.00 0.00 97 1024.6
20260501191530 11 194 1.6 3.2 0.00 0.00 0.00 96 1024.6
20260501190519 11 85 0.0 3.2 0.00 0.00 0.00 97 1024.6
20260501185527 11 175 1.6 3.2 0.00 0.00 0.00 97 1024.8
20260501184517 11 265 1.6 4.8 0.00 0.00 0.00 97 1024.6
20260501183525 11 312 1.6 4.8 0.00 0.00 0.00 97 1024.6
20260501182534 11 334 1.6 4.8 0.00 0.00 0.00 96 1024.6
20260501181523 11 53 0.0 3.2 0.00 0.00 0.00 96 1024.7
20260501180533 11 7 1.6 3.2 0.00 0.00 0.00 96 1024.6
20260501175522 11 110 0.0 3.2 0.00 0.00 0.00 96 1024.6
20260501174545 11 90 1.6 3.2 0.00 0.00 0.00 96 1024.6
20260501173519 11 193 1.6 3.2 0.00 0.00 0.00 96 1024.7
20260501171537 11 38 1.6 4.8 0.00 0.00 0.00 95 1024.7
20260501170525 11 92 0.0 3.2 0.00 0.00 0.00 95 1024.8
20260501165534 11 263 0.0 3.2 0.00 0.00 0.00 94 1024.9
20260501164523 11 13 1.6 4.8 0.00 0.00 0.00 94 1024.9
20260501163532 11 174 0.0 3.2 0.00 0.00 0.00 94 1025.0
20260501162519 11 128 0.0 1.6 0.00 0.00 0.00 93 1025.2
20260501161530 11 191 3.2 4.8 0.00 0.00 0.00 93 1025.4
20260501160518 11 181 1.6 4.8 0.00 0.00 0.00 93 1025.4
20260501155527 12 183 3.2 4.8 0.00 0.00 0.00 92 1025.7
20260501154535 12 172 1.6 4.8 0.00 0.00 0.00 91 1025.8
20260501153525 12 198 1.6 3.2 0.00 0.00 0.00 91 1025.8
20260501152534 12 171 3.2 6.4 0.00 0.00 0.00 91 1025.9
20260501151522 12 166 3.2 4.8 0.00 0.00 0.00 91 1026.0
20260501150532 12 187 1.6 4.8 0.00 0.00 0.00 90 1026.0
20260501145521 12 140 3.2 4.8 0.00 0.00 0.00 89 1026.1
20260501144530 13 249 0.0 3.2 0.00 0.00 0.00 87 1026.1
20260501143526 13 30 1.6 3.2 0.00 0.00 0.00 85 1026.2